SCP
0 0 0 0 0 0 0 0 0 0 0 0 0 0 0 0 0 0 0 0 0 0 0 0 0 0 0 0 0 0 0 0 0 0 0 0 0 0
0 0 0 0 0 0 0 0 0 0 0 0 0 0 0 0 0 0 0 0 0 0 0 0 0 0 0 0 0 0 0 0 0 0 0 0 0 0
0 0 0 0 0 0 0 0 0 0 0 0 0 0 0 0 0 0 0 0 0 0 0 0 0 0 0 0 0 0 0 0 0 0 0 0 0 0
0 0 0 0 0 0 0 0 0 0 0 0 0 0 0 0 0 0 0 0 0 0 0 0 0 0 0 0 0 0 0 0 0 0 0 0 0 0
0 0 0 0 0 0 0 0 0 0 0 0 0 0 0 0 0 0 0 0 0 0 0 0 0 0 0 0 0 0 0 0 0 0 0 0 0 0
0 0 0 0 0 0 0 0 0 0 0 0 0 0 0 0 0 0 0 0 0 0 0 0 0 0 0 0 0 0 0 0 0 0 0 0 0 0
0 0 0 0 0 0 0 0 0 0 0 0 0 0 0 0 0 0 0 0 0 0 0 0 0 0 0 0 0 0 0 0 0 0 0 0 0 0
0 0 0 0 0 0 0 0 0 0 0 0 0 0 0 0 0 0 0 0 0 0 0 0 0 0 0 0 0 0 0 0 0 0 0 0 0 0
0 0 0 0 0 0 0 0 0 0 0 0 0 0 0 0 0 0 0 0 0 0 0 0 0 0 0 0 0 0 0 0 0 0 0 0 0 0
0 0 0 0 0 0 0 0 0 0 0 0 0 0 0 0 0 0 0 0 0 0 0 0 0 0 0 0 0 0 0 0 0 0 0 0 0 0
0 0 0 0 0 0 0 0 0 0 0 0 0 0 0 0 0 0 0 0 0 0 0 0 0 0 0 0 0 0 0 0 0 0 0 0 0 0
0 0 0 0 0 0 0 0 0 0 0 0 0 0 0 0 0 0 0 0 0 0 0 0 0 0 0 0 0 0 0 0 0 0 0 0 0 0
0 0 0 0 0 0 0 0 0 0 0 0 0 0 0 0 0 0 0 0 0 0 0 0 0 0 0 0 0 0 0 0 0 0 0 0 0 0
0 0 0 0 0 0 0 0 0 0 0 0 0 0 0 0 0 0 0 0 0 0 0 0 0 0 0 0 0 0 0 0 0 0 0 0 0 0
0 0 0 0 0 0 0 0 0 0 0 0 0 0 0 0 0 0 0 0 0 0 0 0 0 0 0 0 0 0 0 0 0 0 0 0 0 0
0 0 0 0 0 0 0 0 0 0 0 0 0 0 0 0 0 0 0 0 0 0 0 0 0 0 0 0 0 0 0 0 0 0 0 0 0 0
0 0 0 0 0 0 0 0 0 0 0 0 0 0 0 0 0 0 0 0 0 0 0 0 0 0 0 0 0 0 0 0 0 0 0 0 0 0
0 0 0 0 0 0 0 0 0 0 0 0 0 0 0 0 0 0 0 0 0 0 0 0 0 0 0 0 0 0 0 0 0 0 0 0 0 0
0 0 0 0 0 0 0 0 0 0 0 0 0 0 0 0 0 0 0 0 0 0 0 0 0 0 0 0 0 0 0 0 0 0 0 0 0 0
0 0 0 0 0 0 0 0 0 0 0 0 0 0 0 0 0 0 0 0 0 0 0 0 0 0 0 0 0 0 0 0 0 0 0 0 0 0
0 0 0 0 0 0 0 0 0 0 0 0 0 0 0 0 0 0 0 0 0 0 0 0 0 0 0 0 0 0 0 0 0 0 0 0 0 0
0 0 0 0 0 0 0 0 0 0 0 0 0 0 0 0 0 0 0 0 0 0 0 0 0 0 0 0 0 0 0 0 0 0 0 0 0 0
0 0 0 0 0 0 0 0 0 0 0 0 0 0 0 0 0 0 0 0 0 0 0 0 0 0 0 0 0 0 0 0 0 0 0 0 0 0
Wind_Speed
6 7 6 4 4 4 4 5 5 5 4 5 4 4 4 3 3 5 6 7 8 8 8 8 8 8 8 9 9 9 9 9 9 10 10 11 11 12
5 4 5 5 4 4 5 5 5 6 5 2 3 3 3 4 5 6 6 6 10 10 10 9 10 10 10 10 10 10 10 10 10 10 11 11 11 11
7 7 7 6 5 5 5 5 5 5 6 5 4 3 4 7 4 5 7 8 8 13 12 11 11 11 11 11 11 11 11 11 11 12 12 12 12 13
8 8 8 6 7 7 5 6 5 4 7 7 5 5 6 7 7 7 8 8 8 9 13 12 12 12 12 12 12 12 12 12 12 13 13 13 14 14
9 9 9 8 9 7 7 7 6 6 6 7 7 5 5 6 6 8 9 7 9 7 12 14 14 13 13 13 14 14 14 14 14 14 14 14 14 14
9 9 9 9 10 9 8 8 8 7 7 8 8 7 6 6 6 7 8 7 8 8 7 8 11 14 16 15 15 15 15 15 15 14 14 14 14 15
9 9 9 8 7 7 7 7 8 8 8 8 8 7 7 5 6 6 7 7 7 8 8 8 8 9 11 15 18 17 16 15 15 15 15 15 15 15
9 9 9 9 8 9 9 8 8 9 9 8 8 8 7 7 6 7 8 8 9 6 7 9 9 9 9 10 9 13 15 15 15 15 15 15 16 16
8 8 8 7 9 10 10 11 11 11 11 10 11 10 8 7 7 9 9 10 10 8 7 10 10 10 10 10 8 10 13 14 15 15 15 16 16 16
7 7 7 6 6 6 8 9 10 10 11 11 11 11 9 7 7 9 10 11 12 10 10 11 10 11 10 10 9 12 14 15 16 16 16 16 16 16
7 6 6 6 4 4 7 9 9 8 8 9 9 10 9 8 8 8 10 10 11 10 8 10 11 11 11 11 10 12 15 16 17 17 17 17 17 16
5 5 4 5 3 5 7 8 9 8 7 6 8 10 12 12 12 11 11 11 11 11 8 8 10 10 11 10 10 8 10 13 17 18 18 18 17 13
4 4 3 5 5 6 7 7 6 6 7 7 8 8 8 7 8 8 8 9 10 11 8 8 9 10 11 11 10 10 10 10 10 12 16 19 19 16
4 3 1 4 5 6 6 5 5 7 7 7 7 7 7 7 6 7 8 9 10 12 11 10 10 10 11 13 12 11 11 11 11 12 12 12 15 19
3 2 1 3 4 6 8 8 7 7 6 6 7 7 7 6 6 6 8 9 11 12 12 12 11 11 11 12 13 13 13 12 12 12 12 12 11 11
4 3 6 7 8 6 6 7 7 5 5 7 7 7 6 6 7 7 8 8 9 9 10 11 11 12 12 14 13 13 13 13 12 12 12 12 12 12
3 4 5 4 5 5 4 4 5 5 6 6 6 7 7 7 7 7 7 8 10 10 9 8 10 11 13 13 13 14 13 13 13 12 11 13 13 13
5 5 4 5 5 5 5 5 5 5 5 6 6 7 7 7 7 7 7 8 9 10 10 10 9 10 11 12 13 14 13 13 13 12 12 13 14 13
5 4 4 4 5 5 6 6 6 6 6 7 7 7 8 8 8 8 8 8 9 10 10 9 9 10 12 14 12 10 11 12 12 12 12 12 14 13
4 4 4 4 5 6 6 6 6 7 6 7 7 8 8 8 8 8 8 10 10 10 10 10 10 10 11 13 13 13 12 13 13 13 13 12 12 13
4 4 5 5 5 6 6 6 7 7 7 7 8 8 8 8 9 9 9 10 10 11 11 11 10 11 11 11 12 13 13 12 13 12 13 13 13 12
5 5 5 6 6 6 7 7 7 8 8 8 8 7 8 8 9 10 10 10 9 10 12 11 11 10 10 11 13 15 15 14 13 15 17 17 13 12
6 6 6 6 6 6 7 8 9 8 8 8 8 8 8 8 8 9 10 10 10 11 11 11 10 10 11 11 13 13 16 15 12 11 11 14 20 22
Wind_Direction
219 213 235 232 239 245 249 259 268 261 234 189 218 201 227 236 167 241 245 184 203 223 233 240 244 247 250 253 255 256 256 256 257 258 258 255 256 256
230 233 238 235 228 234 238 243 256 271 276 248 217 218 233 261 190 241 256 186 211 223 231 239 245 249 250 252 253 253 253 253 254 255 256 253 252 253
217 216 222 241 234 228 227 232 236 246 257 258 241 219 226 259 247 248 252 246 232 207 217 231 242 247 249 250 251 252 252 252 252 254 254 253 252 252
217 216 218 213 221 242 235 234 235 243 254 261 258 237 223 237 247 255 260 252 261 200 203 221 234 241 245 247 248 249 250 251 252 253 253 253 253 253
218 218 219 219 222 225 231 236 233 229 239 253 253 251 243 238 245 248 255 258 266 236 204 216 226 234 241 243 243 245 247 248 249 250 251 252 253 253
223 223 224 225 226 228 227 233 240 245 239 248 254 248 242 236 241 254 254 240 252 266 256 243 229 225 233 237 239 240 242 243 246 248 249 250 251 251
223 226 228 229 234 236 244 234 233 240 245 246 250 252 249 245 248 258 267 271 259 259 265 260 249 243 235 231 233 237 238 240 243 245 248 249 250 250
226 227 227 218 222 228 248 262 265 252 254 259 259 260 263 264 268 270 271 270 270 259 261 267 268 268 264 260 236 216 224 235 241 245 247 249 249 249
229 230 234 223 214 224 222 228 242 250 255 264 268 270 272 269 272 268 265 273 277 282 273 269 268 267 266 265 236 221 227 235 241 246 248 249 249 248
232 231 236 242 232 237 239 234 235 231 229 235 252 263 270 279 275 271 277 272 266 260 258 267 271 271 271 271 247 226 230 236 241 245 248 249 249 249
231 230 233 234 227 235 248 252 254 251 235 230 241 254 269 273 271 271 268 268 270 270 260 263 272 275 274 272 266 235 230 235 239 242 244 246 248 249
221 221 216 239 226 213 241 253 259 264 269 253 240 244 250 247 231 241 260 267 273 277 274 269 273 278 278 272 270 267 250 239 236 239 240 242 242 248
231 227 212 191 219 225 240 254 263 275 273 269 266 261 254 252 244 238 244 260 271 275 284 286 282 279 278 281 279 276 274 273 263 252 239 236 234 234
253 261 232 170 212 227 231 240 254 264 262 263 265 266 267 265 263 261 257 257 261 269 278 279 277 277 280 281 281 279 274 272 271 270 269 252 233 229
275 299 267 218 233 232 225 229 238 248 260 266 270 274 278 280 280 271 263 258 256 257 260 260 262 269 270 273 278 280 279 274 269 269 269 267 263 254
251 231 221 230 240 252 237 224 235 253 266 270 275 279 281 278 271 271 275 275 274 273 264 259 259 263 266 269 273 275 275 274 273 271 270 269 266 261
279 256 251 244 240 241 247 251 254 250 249 262 272 276 276 277 277 278 277 277 275 278 281 274 265 262 263 268 272 271 273 274 274 275 272 270 266 264
267 262 266 271 276 283 284 279 273 272 274 277 277 276 277 277 278 279 277 277 280 282 284 285 285 281 274 264 252 266 271 274 276 274 272 271 271 268
256 273 282 286 287 284 285 287 289 288 286 281 279 278 278 277 277 277 277 278 280 285 288 291 289 286 284 284 279 257 277 284 284 281 276 272 273 275
276 291 292 293 292 293 294 294 293 291 286 284 282 280 279 279 280 281 281 283 287 289 288 285 282 282 285 289 293 291 276 275 278 278 280 279 276 275
310 310 307 306 304 302 300 296 293 292 291 290 286 286 285 285 285 286 286 287 284 283 284 285 288 288 286 283 280 279 281 268 263 268 276 279 278 277
310 306 305 303 300 296 295 295 296 294 293 288 289 291 290 288 288 288 288 290 288 286 289 290 292 288 282 280 281 285 286 284 272 254 249 253 266 273
318 314 308 301 298 298 300 302 301 298 297 294 292 289 288 289 291 291 291 287 285 286 288 290 291 289 283 279 280 284 287 288 284 280 269 249 240 246